Location: Krasnoyarskiy Pitomnik
(51.1333°N, 71.6167°E)
Time: 19:16:29
(UTC+00:00)

Vanguard 2 - Pass Details

Date: 24 April 2024
Orbit: 553 x 2914 km, 32.9° (Epoch: 22 May)

Event Time Altitude Azimuth Distance (km) Brightness Sun altitude
Exits shadow 20:17:05 31° 183° (S) 3,782 10.4 -24.1°
Maximum altitude 20:20:43 34° 161° (SSE) 3,793 10.6 -23.9°
Drops below altitude 10° 20:35:20 10° 105° (ESE) 5,738 12.0 -23.1°
Sets 20:40:21 0° 98° (E) 6,699 12.5 -22.8°
